Terug naar catalogus

STARLINK-31518

ActiefCommunicatieVLEO
NORAD 59219·PAYLOAD·🇺🇸 United States

Gelanceerd Mar 11, 2024 vanaf Vandenberg Space Force Base

Loading…

Volgende Passages (komende 24 uur)

TLE

VersSource: CelesTrak SupGP

Epoch: Sep 14, 2026, 21:09 UTC

1 59219C 24046U   26257.88173611 -.00003717  00000+0 -10983-3 0  2579
2 59219  53.1599 352.1643 0001215  70.3796  75.3826 15.34387825    13

Volg STARLINK-31518 in realtime met AllMySat

Download on the App Store